Regional Weather Roundup
Issued by NWS

Home | Current Version | Previous Version | Text Only | Print | Product List | Glossary On
Versions: 1 2 3 4 5 6 7 8 9 10 11 12 13 14 15 16 17 18 19 20 21 22 23 24 25 26 27
000
ASCA42 TJSJ 221710
RWRPR
PUERTO RICO/U.S. VIRGIN ISLANDS HOURLY WEATHER ROUNDUP
NATIONAL WEATHER SERVICE SAN JUAN PR
100 PM AST THU FEB 22 2018

PRZ001>002-007>008-010-221800-
PUERTO RICO

CITY           SKY/WX    TMP DP  RH WIND       PRES   REMARKS
SAN JUAN LMM   MOSUNNY   81  70  69 E20G26    30.18F
AGUADILLA      MOSUNNY   81  66  61 E25G33    30.20F
$$

VIZ001>002-221800-
U.S. VIRGIN ISLANDS

CITY           SKY/WX    TMP DP  RH WIND       PRES   REMARKS
CHARLOTTE AMA  SUNNY     81  66  61 NE20G28   30.17F
CHRISTIANSTED  MOSUNNY   84  64  51 NE18G32   30.16F
$$

HOURLY WEATHER ROUNDUP FOR THE NEWS MEDIA

CITY           SKY/WX    TMP DP  RH WIND       PRES   REMARKS
ORLANDO        PTSUNNY   82  63  52 E8        30.41F
NEW YORK       LGT RAIN  44  32  62 NE16      30.59F
NEWARK         LGT RAIN  45  37  73 NE9       30.58F
CHICAGO        CLOUDY    38  29  70 E14       30.53F WCI  30
HARTFORD       CLOUDY    42  27  55 NE9       30.63F
BOSTON         LGT RAIN  40  23  50 NE14      30.66F WCI  32
DALLAS         LGT RAIN  37  36  96 NW6       30.28R FOG     WCI  32
PHILADELPHIA   LGT RAIN  45  42  89 NE8       30.54  FOG
LOS ANGELES    MOSUNNY   54  36  50 E8        30.24R
WASHINGTON DC  DRIZZLE   51  40  65 N7        30.47F



USA.gov is the U.S. government's official web portal to all federal, state and local government web resources and services.